Starlink 35459

operational
NORAD ID: 65856 Int'l Des: 2025-223 Owner: SPXS Country: US Constellation: starlink
NOTLE

About Starlink 35459

Description loading...

Live Position

Loading 3D Globe...

Upcoming Passes

Altitude History

Altitude vs Time

uPlot chart will show altitude changes over time

Two-Line Element Set

1 65856U 25223C 25318.71770492 .00055250 00000-0 13795-2 0 9994
2 65856 53.1636 109.5747 0003435 292.0039 68.0601 15.39655525 6585
Epoch: Nov 14, 2025 • Age: 9 hours

Current Status

Altitude 448.8 km
Velocity 7.64 km/s
Sub-Earth Point -12.14°S, 6.49°E
Launch Date Oct 3, 2025
Age 0.1 years
Type internet

Technical Details

Classification Payload
Mass 575.00 kg
Dry Mass 530.00 kg
Total Mass 575.00 kg
Length 0.30 m
Diameter 4.10 m
Span 29.00 m
Shape Box + pan
Manufacturer SPXS
Bus Type Starlink V2MO
Phase Status In Orbit
Owner/State SPXS/US

Large Constellations

Loading constellations...